Location: Le Castellard
(44.1862°N, 6.1301°E)
Time: 22:51:42
(UTC+00:00)

COSMO-SKYMED 1 - Pass Details

Date: 18 January 2020
Orbit: 621 x 623 km, 97.9° (Epoch: 18 February)

Event Time Altitude Azimuth Distance (km) Brightness Sun altitude
Rises 06:13:51 0° 219° (SW) 2,892 5.8 -9.4°
Maximum altitude 06:18:57 11° 272° (W) 1,943 4.5 -8.5°
Enters shadow 06:19:45 10° 283° (WNW) 1,974 4.5 -8.4°
